This is the latest recevied weather packets stored in our database for station/object KE6YLF. If no packets are shown the sender has not sent any weather packets the latest 10 day(s).
| Time | Temp. | Humidity | Pressure | Rain* | Wind** | Luminosity | Snow |
|---|---|---|---|---|---|---|---|
| 1788644348 | 37.78° C | 30% | 1075.8 hPa | 0 mm | - | - | - |
| 1788644044 | 36.67° C | 31% | 1075.9 hPa | 0 mm | - | - | - |
| 1788643739 | 36.67° C | 31% | 1076.1 hPa | 0 mm | - | - | - |
| 1788643434 | 37.22° C | 31% | 1075.9 hPa | 0 mm | - | - | - |
| 1788643133 | 37.22° C | 31% | 1076 hPa | 0 mm | - | - | - |
| 1788642829 | 37.22° C | 30% | 1076 hPa | 0 mm | - | - | - |
| 1788642526 | 36.67° C | 30% | 1076 hPa | 0 mm | - | - | - |
| 1788642225 | 38.89° C | 28% | 1076.2 hPa | 0 mm | - | - | - |
| 1788641924 | 38.33° C | 29% | 1076.1 hPa | 0 mm | - | - | - |
| 1788641619 | 38.89° C | 29% | 1076.6 hPa | 0 mm | - | - | - |
| 1788641318 | 38.33° C | 29% | 1076.5 hPa | 0 mm | - | - | - |
| 1788641015 | 38.33° C | 29% | 1076.7 hPa | 0 mm | - | - | - |
| 1788640713 | 38.89° C | 29% | 1076.4 hPa | 0 mm | - | - | - |
| 1788640409 | 38.33° C | 29% | 1076.6 hPa | 0 mm | - | - | - |
| 1788640104 | 38.89° C | 29% | 1076.5 hPa | 0 mm | - | - | - |
| 1788639794 | 38.89° C | 28% | 1076.7 hPa | 0 mm | - | - | - |
| 1788639489 | 38.33° C | 28% | 1076.7 hPa | 0 mm | - | - | - |
| 1788639185 | 38.89° C | 28% | 1076.9 hPa | 0 mm | - | - | - |
| 1788638879 | 37.22° C | 30% | 1076.9 hPa | 0 mm | - | - | - |
| 1788638575 | 37.22° C | 29% | 1077 hPa | 0 mm | - | - | - |
| 1788638272 | 37.78° C | 29% | 1076.9 hPa | 0 mm | - | - | - |
| 1788637968 | 37.78° C | 29% | 1077.2 hPa | 0 mm | - | - | - |
| 1788637664 | 37.78° C | 29% | 1077.2 hPa | 0 mm | - | - | - |
| 1788637363 | 38.33° C | 29% | 1077.3 hPa | 0 mm | - | - | - |
| 1788637062 | 36.67° C | 30% | 1077.3 hPa | 0 mm | - | - | - |
* Rain latest hour (hover to see other rain measurements)
** Current wind speed in m/s (hover to see current wind gust speed)